Regional Weather Roundup
Issued by NWS Green Bay, WI

Home | Current Version | Previous Version | Graphics & Text | Print | Product List | Glossary Off
Versions: 1 2 3 4 5 6 7 8 9 10 11 12 13 14 15 16 17 18 19 20 21 22 23 24 25 26 27 28 29 30 31 32 33 34 35 36 37 38 39 40 41 42 43 44 45 46 47 48 49 50

000
ASUS43 KGRB 271859
RWRGRB

NORTH-CENTRAL AND NORTHEAST WISCONSIN REGIONAL WEATHER ROUNDUP
NATIONAL WEATHER SERVICE GREEN BAY WI
100 PM CST TUE JAN 27 2015

WIZ005-009-010>012-018-019-272000-
NORTH CENTRAL WISCONSIN

CITY           SKY/WX    TMP DP  RH WIND       PRES   REMARKS
IRONWOOD       CLOUDY    27  19  74 SW5       30.14R
MANITOWISH WTR NOT AVBL
ARBOR VITAE    NOT AVBL
EAGLE RIVER    NOT AVBL
LAND O LAKES   NOT AVBL
RHINELANDER    CLOUDY    23  17  78 S6        30.15S
PHILLIPS       NOT AVBL
ANTIGO         NOT AVBL
TOMAHAWK       NOT AVBL
MERRILL        NOT AVBL
$$

WIZ013-073-272000-
NORTHEAST WISCONSIN

CITY           SKY/WX    TMP DP  RH WIND       PRES   REMARKS
IRON MOUNTAIN  CLOUDY    23  16  74 E3        30.18S
MARINETTE      CLOUDY    27  18  69 E7        30.22S
$$

WIZ017-030-035>037-045-272000-
CENTRAL WISCONSIN

CITY           SKY/WX    TMP DP  RH WIND       PRES   REMARKS
MEDFORD        NOT AVBL
WAUSAU         CLOUDY    24  20  84 CALM      30.16F
MOSINEE        CLOUDY    25  21  86 SE3       30.18S
MARSHFIELD     CLOUDY    25  21  85 SE3       30.17S FOG
WISC RAPIDS    CLOUDY    25  21  85 SE5       30.21S
STEVENS POINT  NOT AVBL
WAUPACA        NOT AVBL
SHAWANO        NOT AVBL
CLINTONVILLE   NOT AVBL
$$

WIZ038-039-048-051-272000-
FOX VALLEY

CITY           SKY/WX    TMP DP  RH WIND       PRES   REMARKS
NWS GREEN BAY  CLOUDY    26  16  65 NE9       30.22S
APPLETON       PTSUNNY   27  16  63 CALM      30.20F
OSHKOSH        CLOUDY    28  17  63 N6        30.20S
FOND DU LAC    CLOUDY    29  17  61 NE6       30.19F
$$

WIZ022-050-052-272000-
EAST CENTRAL WISCONSIN

CITY           SKY/WX    TMP DP  RH WIND       PRES   REMARKS
STURGEON BAY   CLOUDY    23  18  80 N7        30.23S
MANITOWOC      NOT AVBL
SHEBOYGAN      CLOUDY    27  19  72 E7        30.20S
$$

LMZ563-521-522-541>543-272000-
LAKESHORE

STATION/POSITION TIME  TEMP    WIND        PRES    VSBY  WAVE
                       AIR SEA DIR/SP/G                  HT/PER
                 (UTC) (F)     (DEG/KT/KT) (MB)    (MI)  (FT/S)
SHEBOYGAN LKSHOR 1800   26      30/  6/  7 1024.1R
KEWAUNEE LKSHORE 1800   26      70/  2/  5 1022.3R
NORTHPORT PIER   1800   26      90/  4/  6 1023.7S
SISTER BAY LKSHO 1800   33     140/  8/ 10   N/A
CHAMBERS ISLAND  1800   26      10/  4/  5 1023.7S
MENOMINEE LKSHOR 1800   19      20/  7     1024.1R
$$


USA.gov is the U.S. government's official web portal to all federal, state and local government web resources and services.